一网星座-0427星 (ONEWEB-0427 )

导读

ONEWEB-0427是一颗由英国(GB)发射的OneWeb低轨通信卫星,于2021年12月27日08:00发射入轨,是OneWeb全球卫星互联网星座组网过程中的一颗卫星。OneWeb星座旨在为全球提供高速低延迟宽带互联网接入服务,尤其覆盖偏远地区。该卫星运行在近地轨道,为后续星座全球服务能力构建提供支撑,推动了全球空间互联网基础设施建设。

基本信息
目录编号:
50499
目录名称:
ONEWEB-0427
国际标识:
2021-132AG
轨道中心:
EARTH
卫星名称:
一网星座-0427星
卫星全名:
一网星座-0427星 (ONEWEB-0427 )
卫星状态:
在轨 (已飞行1720 天)
发射日期:
2021-12-27 UTC
国别 :
英国 (GB)
星等 :
--
该卫星已列入 空间交会检测服务 Space Conjunction Data Service (SCDS) ,当前飞行风险评估等级: 高风险
轨道信息
数据来源 国际轨道数据
星历时间: 2026-09-11T21:09:45+0800
18小时前
查看轨道信息
半长轴: 7567.881km
偏心率: 0.0001936
轨道倾角: 87.918°
近地点辐角 106.415°
升交点赤经 318.281°
平近点角 253.720°
近地点: 1188.278km
远地点: 1191.21km
周期: 109.200分钟
每日圈数: 13.186858
详细信息
平衡模式:
三轴稳定
覆盖范围:
全球
运营商:
一网卫星公司
运营商所在国:
英国
制造商(研发单位):
一网卫星公司
制造商所在国:
英国
使用方式:
暂无
卫星简介
OneWeb卫星网络由648颗重约125公斤的微型卫星组成,运行在1200公里的轨道上。 每颗卫星都能够提供至少每秒8千兆位的吞吐量,以使用其高吞吐量的Ku频段有效载荷为家庭和移动平台提供互联网接入。该卫星仍在工作。
2D轨道图
3D轨道图
轨道高度分析图
轨道倾角分析图
轨道综合分析图
查看轨道综合分析图
交会数据列表
事件ID 空间交会对象 最接近时刻(TCA) 交会距离 交会风险概率(CRP) 交会风险指数(CRI) 操作
CDM_260913-153704-171905-049923
2026-09-13T
15:37:10+0000
0.643 km
远距离
1.041193E-4 高风险 0.75
与全量物体交会距离演化趋势
与全量物体交会风险概率演化趋势